This demonstration page uses our WeatherBlox Daily Observations layout. Learn more.

Left ArrowRight Arrow

38.89511, -77.03637

Hourly Observations for May 6, 2018

Temp ( °F °C ) Dew Point ( °F °C ) Humidity (%) Winds ( mph kmh ) Pressure ( in mb ) Visibility ( mi km ) Precip ( " mm )
12:52 am 00:52 Cloudy 63 17.2 51 10.6 65 65 NE 6 9 30.05 1018 10 16 0.00 0.03
1:52 am 01:52 Cloudy 62 16.7 52 11.1 70 70 WNW 13 20 30.05 1018 10 16 0.00 0.00
2:42 am 02:42 Cloudy 59 15 52 11.1 78 78 NNW 7 11 30.03 1017 10 16 0.00 0.00
2:52 am 02:52 Cloudy 59 15 52 11.1 78 78 NNW 7 11 30.02 1017 10 16 0.00 0.00
3:52 am 03:52 Mostly Cloudy 60 15.6 52 11.1 75 75 NNW 8 13 30.01 1016 10 16 0.00 0.00
4:52 am 04:52 Cloudy 60 15.6 52 11.1 75 75 NNW 8 13 30.00 1016 10 16 0.00 0.00
4:59 am 04:59 Cloudy 60 15.6 52 11.1 75 75 N 7 11 30.00 1016 10 16 0.00 0.00
5:09 am 05:09 Cloudy 60 15.6 52 11.1 75 75 NNE 7 11 30.00 1016 10 16 0.00 0.00
5:52 am 05:52 Cloudy 60 15.6 52 11.1 75 75 NNE 9 15 29.97 1015 10 16 0.00 0.00
6:52 am 06:52 Cloudy 60 15.6 52 11.1 75 75 NE 8 13 29.97 1015 10 16 0.00 0.00
7:52 am 07:52 Cloudy 61 16.1 53 11.7 75 75 NE 7 11 29.97 1015 10 16 0.00 0.00
8:52 am 08:52 Cloudy 62 16.7 54 12.2 75 75 NE 12 19 29.94 1014 10 16 0.00 0.00
9:52 am 09:52 Cloudy 63 17.2 54 12.2 73 73 NE 7 11 29.92 1013 10 16 0.00 0.00
10:52 am 10:52 Cloudy 65 18.3 54 12.2 68 68 NNW 8 13 29.91 1013 10 16 0.00 0.00
11:52 am 11:52 Cloudy 67 19.4 54 12.2 63 63 Calm 29.91 1013 10 16 0.00 0.00
12:52 pm 12:52 Mostly Cloudy 69 20.6 55 12.8 61 61 N 5 7 29.89 1012 10 16 0.00 0.00
1:15 pm 13:15 Mostly Cloudy 69 20.6 55 12.8 61 61 N 9 15 29.88 1012 10 16 0.00 0.00
1:52 pm 13:52 Mostly Cloudy 70 21.1 56 13.3 61 61 NNW 12 19 29.86 1011 10 16 0.00 0.00
2:52 pm 14:52 Cloudy 69 20.6 55 12.8 61 61 NNW 5 7 29.86 1011 10 16 0.00 0.00
3:52 pm 15:52 Cloudy 71 21.7 56 13.3 59 59 N 8 13 29.85 1011 10 16 0.00 0.00
4:52 pm 16:52 Cloudy 70 21.1 55 12.8 59 59 Calm 29.85 1011 10 16 0.00 0.00
5:52 pm 17:52 Cloudy 69 20.6 55 12.8 61 61 N 9 15 29.86 1011 10 16 0.00 0.00
6:52 pm 18:52 Cloudy 66 18.9 55 12.8 68 68 NW 15 24 29.87 1012 10 16 0.00 0.00
7:52 pm 19:52 Cloudy 65 18.3 54 12.2 68 68 NNW 13 20 29.90 1012 10 16 0.00 0.00
8:52 pm 20:52 Cloudy 63 17.2 54 12.2 73 73 N 9 15 29.92 1013 10 16 0.00 0.00
9:52 pm 21:52 Cloudy 63 17.2 54 12.2 73 73 N 10 17 29.94 1014 10 16 0.00 0.00
10:52 pm 22:52 Mostly Cloudy 62 16.7 53 11.7 73 73 NNW 12 19 29.94 1014 10 16 0.00 0.00
11:52 pm 23:52 Mostly Cloudy 61 16.1 53 11.7 75 75 NW 12 19 29.95 1014 10 16 0.00 0.00

Powered by AerisWeather